Theta_e
308 306 308 308 307 308 309 310 310 309 310 310 309 310 311 310 311 311 312 313 313 314 314 315 315 316 319 322 327 328 329 336 341 342 339 337 336 337 337 337 335 330 331 332
305 307 308 308 308 308 308 308 310 310 312 311 310 311 310 310 310 311 311 312 313 313 314 314 314 315 316 319 321 323 325 327 336 339 336 336 337 336 336 335 334 331 332 332
307 308 309 309 310 312 311 312 312 312 312 310 309 310 310 310 310 311 312 312 312 313 313 313 313 314 315 316 317 320 323 324 326 332 336 336 337 335 335 334 332 331 334 331
307 308 309 309 311 312 311 312 312 312 311 310 310 310 309 309 309 309 310 311 311 312 312 313 313 314 314 315 316 316 319 324 325 326 336 336 334 334 332 332 331 332 331 327
307 308 308 308 311 312 310 312 311 311 309 309 310 308 308 309 308 308 308 311 314 314 315 315 314 314 314 315 315 316 318 321 324 327 331 333 334 333 332 332 331 330 327 326
306 308 309 311 312 311 311 310 307 306 308 309 309 309 308 308 308 308 311 314 314 314 313 314 315 315 315 315 315 316 317 320 324 324 324 330 333 333 333 332 331 328 326 326
308 307 311 312 311 308 307 306 307 307 307 309 308 309 310 309 310 313 312 313 313 313 312 312 312 314 315 315 315 316 317 319 322 327 324 330 332 332 333 332 328 327 326 326
305 306 310 313 310 309 309 306 307 309 310 308 308 309 310 312 313 313 314 313 313 312 311 311 312 312 316 317 316 315 316 318 320 324 331 332 333 333 331 329 327 326 326 326
309 310 310 310 309 309 309 309 307 308 307 307 308 309 310 311 313 313 312 312 312 311 311 312 313 313 317 319 319 318 317 319 320 322 329 332 331 329 328 325 326 326 327 328
310 311 310 310 310 309 307 307 307 306 311 312 309 310 311 310 310 312 311 311 312 311 312 314 315 314 319 319 318 322 323 325 322 322 327 330 328 326 325 326 326 327 328 329
310 309 310 310 309 308 307 309 309 307 308 308 309 310 309 311 312 312 311 311 311 311 314 314 314 316 317 317 320 324 331 329 325 322 324 326 326 325 325 326 327 328 331 330
311 308 311 310 309 308 308 308 308 304 305 312 310 311 310 309 308 309 310 311 312 312 314 313 314 316 315 317 319 324 333 336 328 324 322 322 322 324 325 325 327 331 333 332
309 308 311 309 307 306 310 311 309 309 307 311 312 310 309 309 309 310 310 311 312 311 313 314 314 315 315 323 324 325 332 337 330 328 324 324 325 324 325 326 326 332 334 333
312 308 310 311 309 306 310 310 311 312 313 312 311 310 310 310 309 310 311 311 311 312 314 313 317 319 322 320 321 321 330 337 333 329 327 325 325 326 327 330 334 337 333 338
308 309 309 310 311 311 312 312 313 313 313 315 313 311 310 309 309 310 312 312 312 316 316 315 316 317 323 322 324 324 325 339 337 331 330 328 327 333 333 335 334 335 343 343
306 308 311 311 310 310 311 311 311 311 311 313 313 312 311 311 311 310 310 310 311 315 314 316 313 316 322 325 326 323 321 333 341 333 332 336 338 337 340 337 343 345 342 343
306 306 308 310 311 311 312 311 313 313 313 313 313 312 311 311 310 309 309 309 310 312 310 311 312 314 315 324 326 325 321 331 342 339 336 338 336 340 342 345 345 342 341 340
306 307 312 312 309 314 310 313 312 312 312 311 310 311 311 310 309 309 309 309 310 309 309 309 311 314 315 322 327 325 323 328 338 339 337 336 340 342 342 343 343 340 336 334
306 309 313 314 308 309 311 312 312 311 311 311 312 311 310 310 309 309 309 309 309 309 309 309 310 312 315 325 326 324 325 333 339 338 336 338 341 342 340 342 340 336 335 333
308 309 312 312 314 310 308 312 311 311 312 310 310 310 310 310 310 309 308 307 309 308 308 310 312 314 320 325 326 324 327 331 336 337 337 339 340 339 337 336 335 334 328 329
311 312 313 311 312 310 310 311 310 313 310 310 310 310 309 309 309 308 307 307 307 307 309 313 316 315 319 324 327 324 326 335 334 336 337 338 338 336 334 331 330 330 331 330
307 306 308 312 313 309 311 311 313 312 311 311 310 308 307 307 307 306 307 307 306 309 311 314 318 318 321 325 327 322 326 333 332 335 337 336 335 332 331 330 331 329 329 330
304 310 311 307 305 306 311 311 311 311 309 306 305 305 306 306 306 306 306 307 308 310 312 314 319 320 324 325 324 324 327 327 330 333 331 331 331 330 329 330 329 329 329 329
307 306 305 308 308 309 311 311 310 308 305 304 305 305 306 306 307 307 308 309 310 311 313 316 322 322 325 324 324 325 328 331 332 329 328 328 329 328 329 329 329 329 329 329
307 307 308 310 310 310 310 310 306 307 305 305 306 306 307 306 307 307 309 310 311 312 314 317 321 322 323 322 327 329 326 332 331 330 330 330 329 329 329 329 329 329 329 328
306 307 311 311 310 310 310 308 305 305 306 305 306 305 305 306 307 309 310 311 313 315 318 321 325 327 324 331 331 331 331 331 331 330 330 329 330 330 329 329 329 329 328 329
Wind_Speed
2 3 3 10 8 6 4 2 2 4 5 5 7 15 9 9 13 13 20 23 25 26 27 25 24 19 15 22 29 28 32 38 41 45 46 45 47 46 40 36 34 35 31 27
5 1 4 4 4 4 4 1 1 4 5 7 10 22 10 3 5 10 18 19 21 29 30 27 27 23 19 18 24 34 35 34 49 53 50 46 42 41 37 37 39 39 33 30
3 6 4 3 3 2 1 3 2 3 6 5 7 18 12 3 5 17 14 16 24 30 33 34 31 29 27 21 20 25 36 37 36 44 54 49 48 46 45 45 41 38 34 30
4 3 1 3 2 1 2 1 1 5 6 3 5 12 5 8 10 4 13 24 31 27 29 31 30 31 30 28 24 24 26 32 38 35 52 53 52 52 47 46 38 35 29 30
6 2 2 4 1 2 4 2 3 3 4 2 2 4 3 14 13 16 11 10 11 15 20 27 28 31 33 32 31 27 24 27 35 37 47 52 55 54 51 42 38 30 30 30
8 2 4 4 1 1 3 2 5 4 2 1 7 5 4 2 2 8 6 15 17 21 23 23 26 29 34 35 35 32 26 26 28 38 38 49 57 56 51 43 36 32 33 31
3 2 1 3 3 5 5 5 4 4 2 5 3 5 11 16 16 5 9 16 19 21 25 26 27 28 31 35 35 35 30 27 25 31 40 41 49 53 47 41 35 33 32 28
3 5 2 1 4 5 4 6 5 5 3 13 6 7 7 6 9 15 16 19 20 25 28 31 32 29 28 30 34 36 35 31 27 28 34 33 35 42 41 37 34 33 31 25
2 4 3 3 2 5 2 4 5 3 1 1 5 8 10 18 9 11 13 16 23 28 33 37 39 31 26 27 29 31 35 34 28 31 35 38 37 39 38 36 35 35 28 25
3 3 5 3 1 3 5 4 1 2 3 4 5 5 9 12 13 9 11 15 30 33 35 38 40 30 21 23 25 26 30 31 28 32 36 41 40 39 38 37 35 34 29 24
4 4 4 3 4 6 2 1 3 2 3 4 3 7 6 8 10 12 14 24 29 33 34 33 37 30 18 22 21 23 22 27 25 30 40 43 44 41 37 35 31 30 27 22
4 4 3 9 9 6 5 5 5 4 5 5 3 14 5 15 11 11 20 31 33 31 28 35 40 27 23 24 23 21 18 18 21 29 37 41 41 38 32 27 24 22 24 23
4 1 3 6 3 5 1 4 4 3 1 12 7 13 2 9 17 23 22 30 35 28 31 36 44 33 29 25 26 22 15 11 16 20 30 32 30 27 25 23 21 24 25 23
8 4 6 6 6 3 9 15 14 12 4 9 15 23 19 19 16 13 24 28 27 21 25 32 39 34 23 22 25 30 16 8 14 19 23 29 28 27 24 21 23 25 23 24
4 7 6 10 14 13 17 20 19 17 20 13 17 18 21 16 8 8 17 25 28 20 22 28 38 41 28 21 26 31 21 10 8 21 27 27 27 23 20 22 23 23 26 26
1 4 3 8 14 17 20 21 18 21 19 17 16 17 12 6 10 15 19 23 26 18 18 18 36 36 30 27 30 36 21 14 11 21 27 24 22 22 24 26 26 26 29 28
4 2 2 8 1 7 12 11 9 5 5 3 8 16 5 10 12 18 24 28 25 16 25 32 37 33 34 26 31 37 19 12 19 24 22 21 22 25 27 27 29 31 30 30
6 5 3 5 4 4 4 2 1 3 10 11 13 13 3 8 22 26 29 24 18 31 31 35 32 32 34 26 28 35 20 16 22 26 24 25 27 28 29 30 30 34 31 25
13 5 3 3 3 7 7 4 4 2 9 11 10 4 10 19 25 22 15 16 28 30 33 33 32 30 32 21 24 27 13 14 26 28 28 30 31 33 28 30 33 31 33 26
7 5 2 2 4 5 5 3 3 1 7 4 3 7 11 19 16 15 24 35 33 36 35 34 28 26 22 20 22 18 16 9 25 30 33 35 35 30 28 32 31 27 25 24
2 2 6 6 5 7 3 5 7 3 4 4 16 19 18 14 20 37 37 35 33 36 37 27 23 21 20 22 21 17 11 10 18 32 35 34 34 31 30 30 29 28 27 23
2 3 4 3 3 7 4 1 2 8 24 23 23 29 29 34 33 34 32 33 41 37 31 26 25 21 22 19 19 16 19 20 10 30 34 36 29 32 33 32 29 26 23 21
2 2 2 6 6 6 7 12 28 27 19 25 30 34 33 31 32 32 33 33 36 36 33 26 25 23 19 13 17 16 25 24 11 29 32 31 33 33 30 31 28 25 22 21
4 5 4 3 5 5 17 30 18 26 24 30 34 33 31 33 31 33 34 33 35 35 32 26 22 18 12 5 8 19 28 26 29 36 35 35 34 31 31 24 25 23 23 21
9 4 5 6 11 15 20 15 31 30 30 37 35 33 29 32 33 33 34 33 33 35 30 24 22 17 13 11 19 21 39 25 39 34 33 33 30 31 30 26 24 21 19 18
5 6 4 8 14 19 16 24 27 29 29 39 32 34 32 31 34 33 34 35 33 30 26 21 8 13 12 6 23 32 37 39 35 32 28 30 29 32 28 24 24 20 19 17
Wind_Direction
352 75 222 241 209 230 268 256 235 265 335 349 282 299 315 285 296 292 305 314 317 320 323 321 323 327 318 269 252 239 243 243 232 225 229 241 245 247 249 239 250 257 258 260
13 225 217 235 209 206 228 191 325 275 329 333 310 297 299 262 256 297 306 309 311 313 317 323 321 312 314 310 265 261 249 248 241 236 240 235 237 243 244 242 247 257 260 260
169 245 295 9 48 68 97 124 322 277 313 288 314 292 297 231 292 303 293 307 315 312 310 311 313 310 303 303 307 285 267 254 249 247 237 230 234 238 238 240 246 250 252 258
234 266 54 15 173 132 337 119 357 328 11 311 56 291 252 272 289 279 285 290 292 302 302 302 301 299 291 289 291 296 281 261 247 246 232 231 235 238 247 248 248 249 252 261
259 267 342 332 216 157 239 349 327 299 294 9 254 284 110 324 289 278 297 328 319 321 308 302 300 297 291 291 292 289 293 269 250 244 237 238 238 243 247 247 245 246 253 258
246 164 167 206 211 305 60 34 16 30 46 313 230 207 326 230 317 318 291 297 311 316 316 320 309 298 291 289 284 280 285 278 259 248 248 240 238 242 242 238 240 245 250 255
316 350 71 101 27 8 65 51 346 339 358 241 275 272 264 299 299 297 282 296 308 313 320 317 317 312 301 295 288 279 281 282 263 258 244 243 237 242 239 235 243 248 252 258
141 321 118 119 196 211 228 156 162 254 240 283 277 253 255 236 232 273 276 284 300 309 319 326 322 311 303 298 290 284 275 276 260 259 243 232 231 232 234 241 250 255 255 260
156 259 282 213 169 129 199 176 208 232 108 346 228 268 291 265 237 264 271 277 290 310 317 317 319 305 300 296 292 288 277 272 256 244 243 230 228 234 242 249 253 254 252 253
167 290 255 266 130 264 161 190 2 9 284 252 262 259 252 275 278 282 288 291 302 309 314 317 314 299 302 299 301 290 275 270 249 233 235 231 237 242 248 251 252 254 248 243
172 158 278 359 227 201 307 242 91 131 170 224 288 261 221 255 273 277 284 285 288 303 314 321 322 306 310 324 319 304 277 264 248 234 230 234 236 244 246 248 251 248 236 233
186 145 230 233 269 239 185 227 158 132 260 224 226 270 229 259 285 296 283 288 289 295 308 329 330 312 313 333 331 318 277 265 244 232 232 235 240 240 239 236 234 228 227 222
183 181 311 321 6 5 188 200 206 209 263 245 252 268 286 309 305 298 292 291 289 295 318 336 328 317 312 340 338 329 284 267 239 233 224 224 225 226 223 223 226 220 218 218
181 166 190 233 240 193 285 271 265 251 236 261 230 271 274 285 290 309 317 311 302 310 327 332 328 324 308 348 346 339 301 261 230 230 224 213 216 216 215 225 220 210 214 207
147 203 211 241 261 275 268 270 271 258 258 250 273 260 280 283 297 321 340 342 340 352 348 333 320 329 322 344 347 336 320 278 247 227 213 210 205 205 216 208 199 196 199 194
190 253 219 267 269 260 269 267 259 267 262 255 269 275 270 312 316 331 332 324 313 311 330 320 315 333 333 344 344 342 318 284 237 213 199 195 198 204 197 183 186 187 181 178
174 185 55 280 322 300 280 257 210 248 213 252 281 275 308 327 329 318 310 304 296 322 323 317 316 324 337 329 337 335 314 259 206 208 212 214 214 200 189 187 180 176 178 169
209 164 193 286 354 257 257 293 321 279 280 273 279 281 329 318 301 299 298 299 310 320 317 315 310 316 331 325 325 322 300 274 214 219 217 217 204 185 178 179 178 172 166 173
211 161 234 233 210 294 287 201 197 159 280 265 257 310 315 314 306 290 292 294 305 302 304 302 306 312 322 312 321 312 275 241 205 209 211 205 189 168 163 169 169 171 165 169
125 157 207 218 247 257 247 166 135 99 271 104 303 284 300 316 304 295 309 309 301 301 302 308 307 305 310 311 309 289 247 310 198 199 201 188 169 163 166 163 164 167 168 170
171 185 225 245 259 276 284 120 56 245 289 256 305 300 300 287 280 290 300 295 297 298 306 307 303 300 306 302 290 260 235 145 187 203 192 175 163 158 164 165 165 164 166 170
230 177 225 240 244 279 162 108 261 294 298 309 307 303 298 291 293 294 297 297 301 302 304 310 313 312 309 308 276 248 207 145 157 167 175 157 159 161 164 162 164 168 178 182
304 203 265 195 228 234 204 268 297 291 303 312 304 301 296 297 295 295 298 294 294 299 303 308 311 307 323 320 262 222 183 203 215 165 152 154 160 160 164 166 167 177 183 186
274 279 245 304 280 280 302 308 307 305 310 321 301 299 296 294 295 293 292 293 298 302 298 304 311 321 316 337 183 165 173 170 160 162 153 157 163 165 166 174 178 182 185 188
252 304 249 260 280 310 300 303 321 302 308 318 305 298 297 299 295 294 292 292 289 290 294 302 312 312 304 277 268 160 179 179 168 159 163 165 169 170 170 175 182 189 190 187
208 218 260 285 294 294 289 312 329 310 310 311 308 308 305 300 298 299 293 292 292 293 297 301 297 279 290 92 157 165 171 168 166 166 167 169 173 172 175 181 179 182 180 180